Terug naar catalogus

MOLNIYA 3-47

ActiefCommunicatieHEO
NORAD 23642·PAYLOAD·🇷🇺 Russia

Gelanceerd Aug 9, 1995 vanaf Plesetsk Cosmodrome

Loading…

Volgende Passages (komende 24 uur)

TLE

VersSource: Space-Track

Epoch: Sep 13, 2026, 03:54 UTC

1 23642U 95042A   26256.16299845  .00000993  00000-0  00000+0 0  9992
2 23642  64.8418 260.0270 6652882 268.2735  20.5236  2.01961329228291

Volg MOLNIYA 3-47 in realtime met AllMySat

Download on the App Store